Hourly Data Report for June 12, 2003

SHERBROOKE A
QUEBEC

45°26'00.000" N
71°41'00.000" W
241.40 m
7028124
71610
YSC

Download Data

Hourly Data (June 2003)
Hourly Data Report for June 12, 2003
TIME
LST
Temp Definition
°C
Dew Point Definition
°C
Rel Hum Definition
%
Precip. Amount Definition
mm

Wind Dir Definition
10's deg

Wind Spd Definition
km/h
Visibility Definition
km
Stn Press Definition
kPa
Hmdx Definition


Wind Chill Definition


Weather Definition


00:00 12.4 11.6 95   32 6 15.0 98.31      
01:00 11.2 10.6 96   32 6 15.0 98.34      
02:00 10.3 9.9 97   23 6 15.0 98.42      
03:00 10.8 10.4 97   31 6 12.9 98.46      
04:00 10.7 10.2 97   29 4 9.7 98.56      
05:00 11.1 10.6 97   19 6 15.0 98.62      
06:00 11.1 10.4 95   25 6 11.3 98.66      
07:00 11.6 10.6 94   30 11 19.3 98.74     Cloudy
08:00 12.4 10.5 88   27 11 24.1 98.81     Mostly Cloudy
09:00 14.4 11.3 82   28 9 24.1 98.81     Mostly Cloudy
10:00 16.6 12.9 79   30 6 24.1 98.80     Mostly Cloudy
11:00 16.9 12.1 73   25 11 24.1 98.82     Mostly Cloudy
12:00 18.4 9.4 56   30 17 24.1 98.79     Mostly Cloudy
13:00 19.3 9.5 53   30 13 24.1 98.78     Mainly Clear
14:00 19.6 9.4 52   35 11 24.1 98.78     Mainly Clear
15:00 19.9 6.4 41   33 11 24.1 98.79     Mainly Clear
16:00 20.2 8.0 45   29 9 24.1 98.80     Mainly Clear
17:00 19.1 5.5 41   32 6 15.0 98.79      
18:00 18.4 6.0 44   33 9 15.0 98.80      
19:00 16.5 7.0 53   33 4 15.0 98.82      
20:00 10.1 7.4 83     0 15.0 98.85      
21:00 9.3 5.4 77   7 4 15.0 98.91      
22:00 7.1 5.6 90   5 4 15.0 98.91      
23:00 6.4 5.6 95     0 15.0 98.95      

Notes on Data Quality.

Legend

  • E = Estimated
  • M = Missing
  • NA = Not Available*
  • [empty] = Indicates an unobserved value
Date modified: